GFSFLT2_925_spd_087.txt.gz
Wind_Speed
15 11 28 26 23 28 37 44 44 43 43 41 42 45 43 39 36 32 30 29 29 30 28 28 27 27 27 28 27 26 21 21
11 12 28 34 23 25 28 33 39 42 45 43 44 44 43 42 34 30 28 27 30 30 29 28 27 27 26 26 26 25 20 20
9 11 18 26 29 26 24 31 33 38 43 47 46 39 37 39 33 30 28 29 31 30 29 28 26 24 24 25 23 18 19 18
10 7 10 17 29 31 25 36 35 38 38 43 36 36 35 37 35 31 30 30 32 31 28 28 25 20 20 21 16 18 16 16
15 10 10 15 23 33 29 32 33 36 38 31 37 34 39 39 37 30 30 31 28 28 28 21 22 18 18 17 17 16 15 15
18 14 14 14 14 24 33 42 35 39 37 32 37 36 38 37 36 31 32 26 29 26 24 24 22 20 20 20 18 15 14 15
17 16 13 12 13 25 31 42 43 39 41 37 34 36 40 40 38 35 32 32 30 29 28 25 22 20 18 18 17 15 15 14
15 17 10 11 5 30 36 40 39 42 37 41 36 37 42 39 37 33 32 31 30 28 26 23 21 20 19 17 16 14 14 13
15 14 13 10 7 20 36 39 38 43 36 43 44 43 40 37 35 31 29 28 27 24 21 21 21 19 18 17 16 15 14 15
15 16 17 14 16 22 37 42 35 33 36 41 40 39 38 37 34 30 27 27 24 22 21 20 18 20 19 17 16 15 15 15
15 17 20 19 20 22 27 38 29 30 30 38 38 37 37 37 34 29 26 25 23 21 21 18 18 17 16 16 15 15 14 16
21 21 23 21 23 19 23 24 26 25 28 27 37 37 35 32 31 30 26 25 23 20 20 18 17 16 12 13 14 14 15 16
20 24 25 25 28 24 25 26 26 27 30 30 30 33 33 31 30 29 26 25 23 21 20 18 17 17 10 7 10 14 17 17
17 23 30 25 23 22 24 21 22 29 35 36 26 23 25 29 27 25 28 25 22 23 23 16 11 19 8 4 3 7 18 21
16 20 27 29 28 25 25 19 18 27 27 30 29 27 26 25 26 29 29 24 26 27 25 22 14 18 20 5 3 5 3 8
16 18 24 29 32 30 33 26 24 26 33 34 31 37 37 34 33 31 28 28 28 28 26 28 22 16 17 23 18 5 4 4
17 18 24 25 31 31 30 24 23 24 31 36 38 35 35 33 32 31 30 31 32 28 27 29 29 21 19 10 18 13 12 12
19 18 21 26 31 25 29 27 23 28 31 34 40 33 29 31 32 32 30 29 28 27 27 28 30 32 23 21 19 10 16 14
21 21 22 23 27 27 29 27 24 22 27 28 26 32 30 31 30 30 29 29 29 27 28 32 34 34 34 32 31 30 25 18
25 27 24 24 26 29 28 31 26 22 25 27 28 28 30 35 33 32 31 30 30 29 32 35 31 33 33 34 28 29 33 30

GFSFLT2_925_spd_090.txt.gz
Wind_Speed
9 8 17 26 31 35 47 45 47 46 45 42 41 40 42 40 38 37 32 30 29 27 26 25 26 26 27 26 24 19 17 18
6 9 19 22 23 26 25 41 45 47 45 44 42 41 41 40 39 35 33 32 30 29 27 25 25 26 26 25 25 20 17 17
4 6 16 21 20 19 19 28 38 43 44 43 43 36 38 36 30 35 35 34 30 29 27 27 25 24 23 23 17 17 16 15
7 5 9 16 19 18 23 14 32 37 37 40 36 37 35 29 31 33 35 33 30 28 27 27 22 19 20 13 12 15 14 14
9 8 7 13 13 16 20 24 26 34 37 37 34 33 31 31 30 29 31 31 26 25 25 19 17 17 16 11 16 14 14 15
9 11 9 11 17 20 26 27 34 34 34 34 38 31 32 33 31 28 30 28 26 23 21 15 16 16 14 14 13 13 13 15
10 12 14 13 15 18 26 25 29 47 44 36 31 30 31 32 30 28 29 27 26 23 18 16 15 16 14 14 13 12 13 14
11 13 14 13 15 19 26 29 27 46 46 41 33 28 30 29 29 27 26 26 23 21 19 18 15 15 14 13 12 11 12 13
10 13 13 11 10 19 24 36 37 42 41 42 34 30 28 28 27 24 24 23 21 20 18 16 16 14 13 13 12 12 12 12
11 11 10 8 4 11 29 33 44 40 43 38 36 33 26 25 26 24 23 22 20 19 18 16 15 14 13 11 10 11 12 13
11 14 9 9 7 21 32 38 36 41 40 38 38 38 32 29 25 26 28 23 17 18 17 15 13 13 12 11 11 12 13 12
14 14 16 15 17 28 31 32 31 33 37 35 38 35 34 32 25 27 26 23 14 15 15 13 11 10 10 10 10 11 11 12
13 14 15 21 21 23 25 26 29 28 33 30 35 38 36 29 24 23 21 18 16 13 12 13 9 9 8 7 9 12 13 14
12 14 17 17 22 22 18 26 27 26 27 29 24 32 28 27 22 22 18 20 17 16 14 12 11 14 10 9 5 11 17 19
13 15 17 18 19 26 24 19 22 22 28 27 26 31 24 23 25 23 22 19 18 19 17 16 14 13 16 10 4 6 4 13
16 16 18 19 26 25 27 25 26 25 34 29 29 24 25 23 23 22 22 24 20 21 20 19 16 15 13 19 17 12 5 5
17 17 18 20 23 24 28 21 22 22 26 29 30 29 26 24 20 22 20 20 19 20 19 19 18 18 17 15 17 20 19 15
19 19 19 21 26 25 29 27 20 22 23 30 29 33 32 32 23 19 19 18 21 22 19 18 20 20 21 23 21 18 17 18
20 21 21 21 24 27 29 29 29 24 29 29 27 27 28 31 26 22 20 23 22 19 17 20 22 23 23 24 25 25 27 24
22 23 23 24 25 26 27 27 30 27 30 30 32 32 32 27 28 28 26 24 22 18 19 21 22 22 25 25 26 27 26 26

GFSFLT2_925_spd_093.txt.gz
Wind_Speed
10 9 10 16 25 26 22 23 25 28 44 44 43 40 37 35 33 33 30 30 28 27 26 26 26 26 25 22 20 16 16 18
8 8 7 12 19 21 21 30 47 48 43 45 44 42 39 38 34 32 29 29 29 28 27 25 26 26 24 21 19 15 17 17
5 7 9 11 13 16 24 27 39 44 46 48 44 37 37 36 30 31 30 30 31 29 27 25 24 26 25 23 14 13 15 16
5 4 6 9 13 11 14 23 28 32 44 48 39 37 34 30 31 30 31 30 30 28 26 25 20 19 19 13 5 11 14 15
7 6 4 5 9 10 12 14 24 42 43 44 35 36 34 32 33 30 27 28 24 25 26 19 17 17 13 8 12 10 14 15
8 6 7 7 7 8 13 16 20 33 42 38 39 31 30 29 30 29 27 24 25 24 20 17 15 15 9 11 11 11 14 14
5 6 7 6 7 11 14 20 23 25 31 32 35 31 27 29 30 29 28 25 24 23 19 17 15 14 12 12 10 9 13 14
5 6 7 10 8 8 13 19 32 33 27 29 29 29 28 26 28 29 28 26 24 22 19 18 15 14 13 12 10 12 11 13
6 7 9 9 8 11 12 16 24 34 39 37 31 28 29 21 26 27 27 26 23 20 19 17 15 14 13 12 11 11 11 11
6 7 10 8 9 10 14 18 26 33 43 43 35 35 27 27 23 23 24 25 23 20 19 17 15 14 15 13 12 11 11 10
7 8 6 3 5 15 17 24 29 34 43 41 38 35 27 22 24 22 22 23 20 19 17 17 16 15 14 12 11 10 11 11
9 7 6 7 12 18 17 25 22 41 41 41 39 32 29 23 21 21 23 21 20 17 17 14 14 13 12 11 10 10 11 13
11 10 9 15 15 21 21 22 32 35 37 40 38 32 29 23 23 23 22 22 24 19 16 14 10 10 9 7 9 11 13 13
12 12 13 10 12 15 22 29 27 31 33 32 30 30 30 28 27 23 20 21 19 18 17 14 10 14 11 12 6 10 16 19
13 13 14 13 13 18 27 27 28 29 29 29 29 27 26 25 22 20 19 20 19 20 19 16 14 16 14 8 3 5 6 18
16 14 15 16 18 19 25 29 29 28 32 33 31 31 28 25 20 22 23 20 20 20 15 20 17 13 10 14 14 11 3 2
19 18 16 17 19 20 23 24 22 21 25 28 27 28 32 28 27 22 23 19 18 16 20 19 16 14 16 13 11 14 16 12
19 21 21 20 20 21 23 26 25 23 22 23 24 23 30 33 29 23 19 19 16 20 19 18 17 18 18 16 16 13 13 15
20 22 22 22 20 22 24 24 25 30 29 28 26 25 28 32 31 24 22 20 19 20 20 19 20 23 19 18 19 21 21 22
25 24 24 24 25 23 26 27 21 24 29 31 32 29 30 30 34 26 24 21 21 22 21 19 22 22 21 20 22 22 24 25

GFSFLT2_925_spd_099.txt.gz
Wind_Speed
7 9 11 16 21 22 27 31 29 29 36 29 21 19 20 31 29 30 28 26 25 31 33 36 33 28 22 17 24 31 26 26
11 11 9 11 20 23 29 29 27 31 29 23 30 27 23 27 32 31 28 26 28 31 33 35 30 24 19 19 31 28 25 24
9 9 9 11 12 20 25 28 28 26 30 30 26 42 37 34 34 33 29 26 29 32 32 33 29 23 25 29 29 26 21 23
9 9 11 12 12 15 21 19 21 22 28 24 29 27 39 38 34 32 30 29 29 29 32 32 27 25 24 17 30 26 23 23
11 10 10 14 12 13 16 18 21 24 29 26 28 27 39 38 35 33 33 30 29 30 32 32 28 25 21 19 28 24 22 27
12 10 9 10 11 11 13 15 17 23 26 23 43 36 42 38 37 36 34 33 34 33 33 32 29 21 18 22 24 22 23 27
15 13 10 8 9 14 15 15 15 23 27 28 30 43 40 38 39 37 37 35 35 34 31 34 26 17 21 22 23 22 22 26
15 11 7 8 11 10 13 15 10 23 26 26 34 39 42 38 41 37 38 39 39 31 30 31 21 16 17 10 22 22 19 25
11 10 9 10 10 13 13 14 10 18 25 34 28 40 42 40 43 39 39 40 36 26 29 23 20 19 21 15 23 22 20 21
8 10 13 12 11 11 13 12 14 14 32 43 29 44 42 43 41 37 39 40 34 29 30 27 22 21 16 16 20 21 18 18
12 11 12 13 10 10 11 14 17 19 34 39 44 42 42 41 41 37 38 37 31 36 32 29 26 23 19 16 15 21 20 19
12 12 12 10 11 12 11 13 17 21 30 39 41 39 41 39 44 36 39 36 31 36 32 28 27 25 21 17 17 14 16 16
15 15 13 12 11 13 17 20 21 27 28 40 41 33 39 41 44 37 41 37 34 34 32 28 26 28 24 17 13 13 17 17
17 15 13 11 15 13 14 23 26 31 33 37 40 35 31 36 37 34 36 37 37 32 31 28 20 27 26 15 1 6 13 16
20 18 14 13 13 14 16 24 23 24 31 31 39 33 32 36 37 37 34 34 35 32 32 28 24 25 30 8 3 3 5 16
22 21 19 15 14 17 22 20 21 22 31 35 35 35 32 35 35 38 38 31 31 30 28 29 29 26 20 16 8 12 3 1
23 22 23 19 16 17 21 17 18 26 27 36 38 35 33 32 36 35 34 33 30 29 29 28 24 23 26 19 16 10 11 3
23 23 24 24 22 19 22 24 25 25 26 29 31 31 33 27 25 27 31 30 28 29 27 23 24 21 25 18 14 8 12 7
25 24 21 27 24 26 24 30 33 31 31 27 28 28 28 30 30 27 28 31 29 25 25 23 26 26 24 22 19 15 15 16
26 27 23 27 27 26 25 31 30 28 32 28 30 34 37 36 33 34 38 35 33 28 24 26 27 29 27 25 24 21 21 22

GFSFLT2_925_spd_105.txt.gz
Wind_Speed
20 21 19 19 20 22 23 23 23 26 32 35 33 24 30 24 13 12 19 19 20 27 29 31 30 29 27 25 22 20 23 24
20 20 18 18 19 21 23 24 25 26 30 36 37 38 30 29 28 13 15 20 22 28 29 31 29 27 26 23 21 24 23 23
19 19 17 17 18 19 23 25 25 30 32 34 28 25 32 34 32 26 22 24 26 29 33 30 27 23 25 25 24 22 22 25
19 19 17 18 18 19 22 24 27 31 36 43 31 36 37 33 29 22 26 26 29 31 33 28 23 24 30 27 23 22 25 24
22 20 19 19 19 19 19 21 26 29 37 37 38 38 40 37 23 28 30 27 32 33 30 25 23 28 33 28 24 22 23 24
24 22 21 20 19 20 20 24 28 32 34 39 41 40 36 31 28 33 35 31 36 36 31 24 25 32 32 29 24 24 25 25
26 23 22 20 20 21 21 24 31 31 34 38 37 36 36 33 33 38 37 33 37 38 32 26 27 31 29 25 26 26 25 26
25 22 20 20 21 20 21 24 28 31 29 36 33 40 40 40 33 34 36 35 39 40 35 30 25 30 28 27 25 23 25 27
26 23 21 20 20 20 20 21 24 26 32 35 38 42 40 36 35 37 41 40 41 40 36 30 23 28 30 26 24 24 27 28
27 24 21 19 19 17 18 18 23 26 27 32 39 41 40 36 37 37 44 43 43 41 36 30 27 33 31 27 25 25 26 26
28 24 21 19 15 15 14 16 20 23 24 26 37 42 36 41 38 41 46 42 44 44 39 33 31 34 29 27 26 25 24 25
28 24 21 18 15 13 12 14 18 21 25 25 29 32 38 41 37 43 43 44 43 40 40 30 31 29 28 25 24 22 22 22
27 25 22 22 19 16 13 12 17 11 18 25 21 32 42 39 38 44 44 43 42 43 41 31 28 28 28 20 18 19 21 21
27 26 24 23 21 18 13 15 10 13 12 27 26 38 41 41 39 43 44 37 37 42 39 31 29 32 19 14 3 5 16 20
28 27 25 23 20 16 13 10 13 11 9 26 35 42 40 37 40 42 41 38 40 40 41 33 27 31 33 9 3 3 5 14
28 28 25 21 20 18 17 12 8 10 15 18 37 42 39 34 38 39 38 35 36 41 39 36 30 26 29 14 6 9 3 1
28 28 25 22 20 18 17 14 16 15 14 23 34 37 42 37 37 36 35 33 38 40 38 37 33 29 26 15 10 9 8 3
28 27 25 23 20 17 17 16 16 17 21 21 25 32 34 37 35 36 36 37 38 40 40 38 36 34 31 26 15 6 5 4
26 24 20 24 17 17 17 18 19 19 25 25 25 28 30 36 41 40 41 40 35 36 33 33 33 36 36 29 18 12 8 7
25 24 22 25 21 19 18 18 19 21 24 26 28 33 32 38 35 37 40 41 40 36 28 25 20 21 20 28 25 21 14 11

GFSFLT2_925_spd_108.txt.gz
Wind_Speed
20 20 20 20 20 20 21 22 23 25 28 28 36 34 30 29 18 16 16 18 20 25 29 32 30 28 27 26 26 26 25 24
20 21 21 20 21 21 21 23 24 30 35 32 27 27 32 34 25 15 18 18 19 26 29 29 28 28 27 24 23 22 22 21
20 22 22 21 21 21 21 23 26 30 37 38 40 32 28 26 28 26 25 26 21 27 28 27 26 26 24 21 21 22 22 21
23 24 23 22 22 21 22 23 24 31 39 39 39 34 30 36 30 26 30 26 26 29 30 28 26 26 23 23 22 21 23 22
26 25 24 23 23 22 23 23 26 33 39 40 39 38 39 31 28 32 29 27 27 29 31 29 27 26 26 23 20 21 23 24
27 26 25 24 22 21 21 22 25 33 40 42 41 34 35 35 35 33 33 28 28 31 33 28 26 27 26 24 22 23 21 24
29 28 26 24 22 20 20 23 24 27 37 45 42 35 35 40 37 34 32 31 32 35 33 29 26 27 28 24 23 21 24 25
30 29 26 24 23 20 21 22 24 31 35 41 42 38 35 38 31 31 36 34 38 39 34 29 27 28 28 25 23 22 23 25
32 30 26 25 23 21 20 22 22 28 33 37 40 41 40 38 30 33 37 35 38 40 33 27 27 29 27 25 22 23 22 24
30 30 27 25 23 21 20 19 21 24 27 30 38 41 41 37 34 32 42 40 42 42 34 28 30 30 29 25 24 22 23 24
31 31 28 25 22 20 20 20 21 25 26 30 35 36 38 37 35 33 41 41 40 44 37 33 30 29 29 25 23 22 23 23
32 32 28 23 21 18 19 19 21 23 28 29 30 34 39 41 32 35 39 40 37 40 41 31 29 29 28 23 22 21 21 22
34 33 27 25 22 22 21 20 20 23 24 24 32 33 39 40 37 40 40 40 40 44 41 34 28 33 28 16 14 16 19 21
33 31 29 28 23 24 17 19 17 21 16 23 32 29 40 32 42 40 42 38 40 43 39 31 27 35 17 13 2 3 15 20
29 31 28 29 26 22 14 16 11 15 16 22 29 30 37 40 42 40 40 41 42 43 45 34 25 31 30 10 3 3 4 13
29 27 21 28 26 23 20 14 9 15 16 16 28 32 37 39 40 39 39 38 40 41 43 34 34 27 31 16 9 12 3 2
29 24 22 26 25 20 17 13 16 12 18 16 28 36 39 39 39 37 37 38 41 41 44 33 38 31 30 18 13 9 8 4
25 23 24 24 22 17 18 14 15 14 16 17 25 29 29 39 36 36 35 37 41 43 44 35 38 36 34 24 18 7 6 4
23 24 23 24 21 17 17 17 15 20 19 20 21 26 28 33 34 32 32 33 38 40 43 39 34 36 35 29 22 13 10 8
22 24 21 21 21 20 16 16 16 19 21 25 20 26 30 37 36 35 32 26 29 33 36 34 33 31 32 27 20 13 9 6